User: anonymous   Login
Location: Pian di Sc�
(43.6333°N, 11.5500°E)
Time: 00:49:02
(UTC+00:00)
Language:

Cosmos 2237 Rocket - Orbit

View from above orbital plane
View from above orbital plane
View from above satellite
View from above satellite

Ground track
Ground track

The orbit data is extracted from the following two-line orbital elements,

1 22566U 93016B   20292.68864820 -.00000249  00000-0 -10391-3 0  9991
2 22566  71.0077  27.0673 0008045  74.4976 285.7034 14.14964521423773
Epoch (UTC): 18 October 2020 16:31:39
Eccentricity: 0.0008045
inclination: 71.0077°
perigee height: 836 km
apogee height: 848 km
right ascension of ascending node: 27.0673°
argument of perigee: 74.4976°
revolutions per day: 14.14964521
mean anomaly at epoch: 285.7034°
orbit number at epoch: 42377

The dashed part of the orbit path shows where the satellite is in the earth's shadow,  

DLR